Lid_Strength_Index
1 1 -0 -0 0 -0 1 2 3 3 2 1 2 2 3 4 4 4 6 3 1 0 0 1 2 3 4 4 4 5 4 5 5 5 5 5 5 5 5 5 5 5 5
0 0 1 1 1 0 1 3 4 3 3 3 3 3 4 4 4 5 6 6 3 2 2 2 3 4 4 5 5 5 5 5 6 6 6 6 6 5 5 6 5 5 4
0 -0 2 2 2 2 4 5 5 3 5 4 5 5 6 5 5 5 6 8 8 5 4 4 4 5 5 5 6 6 6 6 7 7 7 7 6 6 6 5 5 5 5
0 2 2 3 2 2 4 5 5 5 6 6 6 7 7 7 7 7 8 9 9 10 8 7 7 7 7 6 6 7 7 7 7 7 7 7 7 6 6 6 6 5 5
1 2 3 4 2 2 4 5 5 5 8 8 7 8 8 8 8 8 11 12 11 11 12 10 10 10 9 8 8 8 8 8 8 8 7 7 7 6 6 6 6 5 4
2 3 5 5 4 4 5 6 6 6 8 9 8 9 9 8 8 10 12 12 13 13 13 14 15 14 12 11 10 9 9 9 8 8 7 7 7 7 6 6 6 5 4
3 5 6 6 5 5 6 6 7 8 10 11 10 10 10 9 9 11 11 12 13 13 14 14 16 16 15 13 12 11 10 9 8 8 7 7 7 7 7 6 5 4 4
4 6 6 6 6 6 6 7 8 10 11 11 11 11 13 12 10 10 11 12 13 13 14 15 16 16 17 16 16 13 12 10 9 8 8 8 7 7 6 6 5 4 4
6 7 7 7 6 7 7 7 8 9 11 11 10 9 11 12 12 11 12 12 13 14 15 16 16 16 17 17 15 15 13 12 10 10 9 8 8 7 6 5 5 4 4
8 8 8 7 7 7 7 7 7 8 9 11 10 8 9 10 12 14 12 12 13 13 15 16 16 16 16 17 15 14 14 12 11 11 10 9 8 7 6 5 5 5 5
9 9 9 8 8 7 7 7 8 8 9 10 11 11 11 11 11 13 15 15 14 15 15 15 16 17 16 16 17 15 13 12 12 11 11 9 8 7 6 5 5 5 5
11 10 9 9 9 9 8 8 9 9 10 11 11 12 13 13 13 14 16 16 16 15 15 15 16 16 16 16 15 13 13 12 12 11 11 10 8 8 7 6 6 6 6
11 11 11 10 10 10 10 10 10 11 12 12 12 12 12 13 13 14 15 17 17 16 15 15 15 15 14 16 15 13 13 12 12 11 10 10 9 8 8 8 7 7 6
10 11 11 11 11 12 12 12 12 13 13 13 14 13 14 14 14 14 16 17 18 18 17 17 15 15 14 15 15 12 16 13 12 10 10 10 9 9 9 9 8 8 7
11 12 12 13 13 13 13 13 14 14 14 14 14 14 14 15 15 15 16 17 17 20 19 16 16 14 14 14 14 15 15 13 12 10 10 10 9 10 9 9 9 8 7
12 13 13 14 14 14 14 14 14 14 15 14 14 14 15 15 16 16 16 17 17 18 19 18 16 15 13 13 13 14 15 13 11 11 10 10 10 11 10 9 9 8 8
13 14 14 13 14 14 14 14 14 14 14 14 15 16 16 16 17 17 17 17 17 18 20 18 16 15 15 15 14 15 14 15 14 11 11 11 11 11 11 10 9 9 9
13 13 13 13 13 14 14 14 14 14 15 16 16 16 16 16 17 17 17 17 18 17 18 19 17 16 16 15 16 15 15 15 15 14 12 12 11 11 11 11 10 10 10
13 13 13 13 14 14 14 14 14 15 16 16 16 16 17 17 17 18 18 17 17 16 17 17 16 16 16 15 16 16 16 16 16 14 12 12 12 12 11 11 11 11 11
14 14 13 13 14 14 15 15 15 16 16 16 16 16 16 16 17 17 17 16 16 16 16 16 16 16 16 15 15 15 16 17 17 16 14 14 14 13 12 12 12 12 12
14 14 15 15 15 15 15 16 17 17 17 16 16 16 16 15 14 14 15 15 16 16 16 16 16 16 16 16 16 16 17 16 18 18 18 17 17 17 17 15 15 14 13
17 16 16 16 17 16 15 15 15 16 16 17 17 16 15 15 14 12 11 11 12 15 15 15 15 16 16 16 15 16 16 20 19 18 18 19 18 19 18 18 15 14 13
17 17 17 17 17 17 14 13 13 15 15 15 15 15 15 15 14 14 12 11 10 10 10 13 15 16 16 15 15 16 17 17 17 16 20 20 19 20 18 18 15 14 13
18 18 17 16 16 16 14 14 14 15 14 14 14 14 13 13 12 13 13 14 14 14 13 13 13 13 13 13 14 14 15 16 20 19 19 21 19 20 20 19 16 14 13
16 16 16 16 16 16 14 14 14 15 14 14 13 13 13 13 11 10 12 13 14 13 11 11 10 10 10 9 9 11 14 20 19 18 18 20 21 23 22 21 19 15 14
16 16 16 16 16 16 13 12 13 14 14 14 13 13 12 12 12 11 13 13 14 13 13 13 13 12 11 11 10 11 12 18 18 18 20 22 23 24 27 24 22 21 20